Flag Weather past 2 weeks in Zabrze, Poland

Now
37 °F

Fog.


Feels Like: 33 °F
Forecast: 33 / 42 °F
Wind: 6 mph from East

Location: Katowice Airport

Current Time: Nov 22, 2014 at 4:30:59 PM

Latest Report: Nov 22, 2014 at 4:00 PM


Visibility: 2 mi

Pressure: 30.33 "Hg

Humidity: 93%

Dew point: 36 °F

Location of ZabrzeLocation

Historic Weather in Zabrze — Graph

°F

Zabrze temperature yesterday

Maximum temperature yesterday: 37 °F (at 12:00 PM)
Minimum temperature yesterday: 36 °F (at 12:00 AM)
Average temperature yesterday: 36 °F

Past Weeks' High & Low Weather Summary

 TemperatureHumidityPressure
High66 °F (Nov 11, 1:30 PM)100% (Nov 7, 5:30 PM)30.33 "Hg (Nov 7, 5:30 PM)
Low36 °F (Nov 20, 3:00 PM)56% (Nov 11, 12:00 PM)29.74 "Hg (Nov 16, 11:00 AM)
Average46 °F93%29.99 "Hg
* Reported Nov 7 3:00 PM — Nov 22 3:30 PM, Zabrze, Weather by CustomWeather, © 2014

Note: Actual official high and low records may vary slightly from our data, if they occured in-between our weather recording intervals... More about our weather records

Advertising

Zabrze weather history for previous 24 hours

 ConditionsComfort  
Time TempWeatherWind HumidityBarometerVisibility
3:30 PM
Nov 22
37 °FFog.6 mph93%30.33 "Hg3 mi
3:00 PM37 °FFog.6 mph93%30.30 "Hg3 mi
2:30 PM39 °FFog.5 mph87%30.30 "Hg3 mi
2:00 PM37 °FFog.6 mph93%30.30 "Hg3 mi
1:30 PM39 °FFog.6 mph87%30.30 "Hg3 mi
1:00 PM37 °FFog.5 mph93%30.30 "Hg3 mi
12:30 PM37 °FFog.5 mph93%30.30 "Hg2 mi
12:00 PM37 °FFog.2 mph87%30.33 "Hg2 mi
11:30 AM37 °FFog.5 mph93%30.33 "Hg2 mi
11:00 AM37 °FFog.6 mph93%30.33 "Hg2 mi
10:30 AM37 °FFog.6 mph93%30.33 "Hg2 mi
10:00 AM37 °FFog.6 mph93%30.33 "Hg2 mi
9:30 AM36 °FFog.5 mph100%30.30 "Hg2 mi
9:00 AM36 °FFog.5 mph100%30.30 "Hg2 mi
8:30 AM36 °FFog.5 mph100%30.30 "Hg2 mi
8:00 AM36 °FFog.5 mph93%30.30 "Hg2 mi
7:30 AM36 °FFog.5 mph93%30.27 "Hg2 mi
7:00 AM36 °FFog.5 mph93%30.27 "Hg2 mi
6:30 AM36 °FFog.5 mph93%30.27 "Hg2 mi
6:00 AM36 °FFog.5 mph93%30.27 "Hg2 mi
5:30 AM36 °FFog.5 mph100%30.27 "Hg2 mi
5:00 AM36 °FFog.5 mph100%30.27 "Hg2 mi
4:30 AM36 °FFog.3 mph100%30.27 "Hg2 mi
4:00 AM36 °FFog.5 mph93%30.27 "Hg2 mi
3:30 AM36 °FFog.3 mph100%30.27 "Hg2 mi
3:00 AM36 °FFog.3 mph93%30.27 "Hg2 mi
2:30 AM36 °FFog.3 mph93%30.27 "Hg2 mi
2:00 AM36 °FFog.5 mph93%30.27 "Hg2 mi
1:30 AM36 °FFog.3 mph100%30.27 "Hg2 mi
1:00 AM36 °FFog.3 mph93%30.27 "Hg2 mi
12:30 AM36 °FFog.2 mph93%30.30 "Hg3 mi
12:00 AM36 °FFog.5 mph93%30.30 "Hg3 mi
11:30 PM
Nov 21
36 °FFog.3 mph93%30.30 "Hg3 mi
11:00 PM36 °FPassing clouds.5 mph93%30.30 "Hg4 mi
10:30 PM36 °FPassing clouds.2 mph93%30.30 "Hg4 mi
10:00 PM36 °FPassing clouds.3 mph93%30.27 "Hg4 mi
9:30 PM36 °FPassing clouds.5 mph93%30.27 "Hg4 mi
9:00 PM36 °FPassing clouds.2 mph93%30.27 "Hg4 mi
8:30 PM36 °FPassing clouds.5 mph93%30.27 "HgN/A
8:00 PM36 °FPassing clouds.3 mph87%30.27 "HgN/A
7:30 PM36 °FPassing clouds.2 mph87%30.30 "HgN/A
7:00 PM36 °FPassing clouds.5 mph87%30.30 "HgN/A
6:30 PM36 °FPassing clouds.3 mph93%30.30 "HgN/A
6:00 PM36 °FPassing clouds.5 mph93%30.30 "Hg4 mi
5:30 PM36 °FPartly cloudy.2 mph93%30.27 "Hg4 mi
5:00 PM36 °FPartly cloudy.2 mph93%30.27 "Hg4 mi
4:30 PM36 °FPassing clouds.1 mph93%30.27 "Hg4 mi
4:00 PM36 °FPassing clouds.3 mph93%30.27 "Hg5 mi
Weather by CustomWeather, © 2014

See weather overviewHow to use our weather pages